ProjectID,Date,Electric Generation,Electric Utility Import,Facility Electric Load
,YYYY-MM-DD,kW,kW,kW
388,2016-08-01,0.0,,0.0
388,2016-08-02,0.0,,0.0
388,2016-08-03,0.0,,0.0
388,2016-08-04,0.0,,0.0
388,2016-08-05,81.29458333333334,,81.29458333333334
388,2016-08-06,85.70383333333332,,85.70383333333332
388,2016-08-07,94.75183333333332,,94.75183333333332
388,2016-08-08,110.16262499999999,,110.16262499999999
388,2016-08-09,104.378125,,104.378125
388,2016-08-10,88.17954166666668,,88.17954166666668
388,2016-08-11,95.64783333333332,,95.64783333333332
388,2016-08-12,81.90470833333333,,81.90470833333333
388,2016-08-13,63.325874999999996,,63.325874999999996
388,2016-08-14,55.915333333333336,,55.915333333333336
388,2016-08-15,64.33541666666666,,64.33541666666666
388,2016-08-16,48.61908333333333,,48.61908333333333
388,2016-08-17,85.92562500000001,,85.92562500000001
388,2016-08-18,78.81633333333333,,78.81633333333333
388,2016-08-19,97.03470833333334,,97.03470833333334
388,2016-08-20,88.352375,,88.352375
388,2016-08-21,38.341833333333334,,38.341833333333334
388,2016-08-22,94.31379166666666,,94.31379166666666
388,2016-08-23,103.5215,,103.5215
388,2016-08-24,102.88833333333334,,102.88833333333334
388,2016-08-25,66.25625000000001,,66.25625000000001
388,2016-08-26,95.13216666666666,,95.13216666666666
388,2016-08-27,101.12429166666668,,101.12429166666668
388,2016-08-28,91.89095833333333,,91.89095833333333
388,2016-08-29,95.300125,,95.300125
388,2016-08-30,99.46154166666668,,99.46154166666668
388,2016-08-31,47.71975,,47.71975
388,2016-09-01,92.20470833333333,,92.20470833333333
388,2016-09-02,86.61037499999999,,86.61037499999999
388,2016-09-03,101.30275,,101.30275
388,2016-09-04,99.488375,,99.488375
388,2016-09-05,99.00583333333333,,99.00583333333333
388,2016-09-06,43.575208333333336,,43.575208333333336
388,2016-09-07,0.0,,0.0
388,2016-09-08,10.160208333333333,,10.160208333333333
388,2016-09-09,67.50625000000001,,67.50625000000001
388,2016-09-10,77.9085,,77.9085
388,2016-09-11,93.14162499999999,,93.14162499999999
388,2016-09-12,96.52116666666666,,96.52116666666666
388,2016-09-13,95.607125,,95.607125
388,2016-09-14,64.39620833333333,,64.39620833333333
388,2016-09-15,90.76891666666667,,90.76891666666667
388,2016-09-16,94.54620833333333,,94.54620833333333
388,2016-09-17,34.28870833333333,,34.28870833333333
388,2016-09-18,57.20316666666667,,57.20316666666667
388,2016-09-19,75.35025,,75.35025
388,2016-09-20,83.57187499999999,,83.57187499999999
388,2016-09-21,83.86654166666666,,83.86654166666666
388,2016-09-22,86.35191666666667,,86.35191666666667
388,2016-09-23,13.397125,,13.397125
388,2016-09-24,73.22862500000001,,73.22862500000001
388,2016-09-25,91.72270833333333,,91.72270833333333
388,2016-09-26,53.42579166666667,,53.42579166666667
388,2016-09-27,88.59579166666667,,88.59579166666667
388,2016-09-28,86.94208333333334,,86.94208333333334
388,2016-09-29,22.882875,,22.882875
388,2016-09-30,50.63025,,50.63025
388,2016-10-01,28.892583333333334,,28.892583333333334
388,2016-10-02,58.93758333333333,,58.93758333333333
388,2016-10-03,47.381458333333335,,47.381458333333335
388,2016-10-04,64.89658333333334,,64.89658333333334
388,2016-10-05,85.06120833333334,,85.06120833333334
388,2016-10-06,75.16733333333333,,75.16733333333333
388,2016-10-07,71.47208333333333,,71.47208333333333
388,2016-10-08,24.720166666666668,,24.720166666666668
388,2016-10-09,43.446583333333336,,43.446583333333336
388,2016-10-10,85.40429166666667,,85.40429166666667
388,2016-10-11,69.73433333333334,,69.73433333333334
388,2016-10-12,78.515,,78.515
388,2016-10-13,30.099,,30.099
388,2016-10-14,82.781875,,82.781875
388,2016-10-15,77.68425,,77.68425
388,2016-10-16,42.84966666666667,,42.84966666666667
388,2016-10-17,24.592541666666666,,24.592541666666666
388,2016-10-18,48.53458333333333,,48.53458333333333
388,2016-10-19,64.85095833333334,,64.85095833333334
388,2016-10-20,7.357458333333334,,7.357458333333334
388,2016-10-21,4.4655,,4.4655
388,2016-10-22,10.07225,,10.07225
388,2016-10-23,32.00454166666667,,32.00454166666667
388,2016-10-24,32.08866666666667,,32.08866666666667
388,2016-10-25,40.00591666666667,,40.00591666666667
388,2016-10-26,28.125083333333333,,28.125083333333333
388,2016-10-27,5.919958333333334,,5.919958333333334
388,2016-10-28,53.28058333333333,,53.28058333333333
388,2016-10-29,9.910916666666667,,9.910916666666667
388,2016-10-30,11.619124999999999,,11.619124999999999
388,2016-10-31,56.919875,,56.919875
388,2016-11-01,52.466833333333334,,52.466833333333334
388,2016-11-02,24.31441666666667,,24.31441666666667
388,2016-11-03,15.579458333333333,,15.579458333333333
388,2016-11-04,63.00983333333334,,63.00983333333334
388,2016-11-05,29.76954166666667,,29.76954166666667
388,2016-11-06,61.23766666666666,,61.23766666666666
388,2016-11-07,62.79429166666667,,62.79429166666667
388,2016-11-08,42.097625,,42.097625
388,2016-11-09,12.972041666666668,,12.972041666666668
388,2016-11-10,54.63733333333334,,54.63733333333334
388,2016-11-11,30.11854166666667,,30.11854166666667
388,2016-11-12,58.59966666666667,,58.59966666666667
388,2016-11-13,56.88804166666667,,56.88804166666667
388,2016-11-14,55.515625,,55.515625
388,2016-11-15,42.97466666666667,,42.97466666666667
388,2016-11-16,17.75,,17.75
388,2016-11-17,47.055375,,47.055375
388,2016-11-18,48.02220833333333,,48.02220833333333
388,2016-11-19,25.782583333333335,,25.782583333333335
388,2016-11-20,11.164125,,11.164125
388,2016-11-21,0.8971666666666667,,0.8971666666666667
388,2016-11-22,6.315124999999999,,6.315124999999999
388,2016-11-23,17.292333333333335,,17.292333333333335
388,2016-11-24,3.5560416666666668,,3.5560416666666668
388,2016-11-25,9.060541666666667,,9.060541666666667
388,2016-11-26,8.104833333333334,,8.104833333333334
388,2016-11-27,11.947333333333333,,11.947333333333333
388,2016-11-28,47.882749999999994,,47.882749999999994
388,2016-11-29,12.508458333333332,,12.508458333333332
388,2016-11-30,7.464208333333333,,7.464208333333333
388,2016-12-01,17.57495833333333,,17.57495833333333
388,2016-12-02,14.231208333333333,,14.231208333333333
388,2016-12-03,9.811333333333334,,9.811333333333334
388,2016-12-04,26.298916666666667,,26.298916666666667
388,2016-12-05,13.366541666666668,,13.366541666666668
388,2016-12-06,19.444083333333335,,19.444083333333335
388,2016-12-07,24.98120833333333,,24.98120833333333
388,2016-12-08,18.316458333333333,,18.316458333333333
388,2016-12-09,6.812541666666667,,6.812541666666667
388,2016-12-10,5.710999999999999,,5.710999999999999
388,2016-12-11,6.357500000000001,,6.357500000000001
388,2016-12-12,0.45770833333333333,,0.45770833333333333
388,2016-12-13,4.33925,,4.33925
388,2016-12-14,11.102875,,11.102875
388,2016-12-15,5.69725,,5.69725
388,2016-12-16,0.32166666666666666,,0.32166666666666666
388,2016-12-17,0.29891666666666666,,0.29891666666666666
388,2016-12-18,1.7702083333333334,,1.7702083333333334
388,2016-12-19,3.8802916666666665,,3.8802916666666665
388,2016-12-20,2.8027083333333334,,2.8027083333333334
388,2016-12-21,4.815791666666667,,4.815791666666667
388,2016-12-22,0.26108333333333333,,0.26108333333333333
388,2016-12-23,2.1875416666666667,,2.1875416666666667
388,2016-12-24,2.4101250000000003,,2.4101250000000003
388,2016-12-25,11.350333333333333,,11.350333333333333
388,2016-12-26,16.409499999999998,,16.409499999999998
388,2016-12-27,5.052125,,5.052125
388,2016-12-28,22.50916666666667,,22.50916666666667
388,2016-12-29,3.4564166666666662,,3.4564166666666662
388,2016-12-30,9.900375,,9.900375
388,2016-12-31,26.149083333333333,,26.149083333333333
388,2017-01-01,43.522166666666664,,43.522166666666664
388,2017-01-02,5.700541666666666,,5.700541666666666
388,2017-01-03,4.3665,,4.3665
388,2017-01-04,22.27145833333333,,22.27145833333333
388,2017-01-05,23.141333333333336,,23.141333333333336
388,2017-01-06,8.886125,,8.886125
388,2017-01-07,9.597666666666667,,9.597666666666667
388,2017-01-08,1.6386666666666667,,1.6386666666666667
388,2017-01-09,2.52475,,2.52475
388,2017-01-10,1.8313750000000002,,1.8313750000000002
388,2017-01-11,39.04620833333333,,39.04620833333333
388,2017-01-12,5.872416666666666,,5.872416666666666
388,2017-01-13,32.00525,,32.00525
388,2017-01-14,11.553416666666665,,11.553416666666665
388,2017-01-15,8.850333333333333,,8.850333333333333
388,2017-01-16,44.642583333333334,,44.642583333333334
388,2017-01-17,3.5775,,3.5775
388,2017-01-18,4.09375,,4.09375
388,2017-01-19,10.096375,,10.096375
388,2017-01-20,15.686875,,15.686875
388,2017-01-21,25.80541666666667,,25.80541666666667
388,2017-01-22,12.973333333333334,,12.973333333333334
388,2017-01-23,17.440125,,17.440125
388,2017-01-24,0.3665416666666667,,0.3665416666666667
388,2017-01-25,0.5677916666666667,,0.5677916666666667
388,2017-01-26,16.990916666666667,,16.990916666666667
388,2017-01-27,27.392666666666667,,27.392666666666667
388,2017-01-28,4.949291666666666,,4.949291666666666
388,2017-01-29,20.080791666666666,,20.080791666666666
388,2017-01-30,14.641958333333333,,14.641958333333333
388,2017-01-31,11.763625,,11.763625
388,2017-02-01,44.71754166666667,,44.71754166666667
388,2017-02-02,4.013041666666667,,4.013041666666667
388,2017-02-03,27.050166666666666,,27.050166666666666
388,2017-02-04,35.149750000000004,,35.149750000000004
388,2017-02-05,12.858791666666667,,12.858791666666667
388,2017-02-06,23.29433333333333,,23.29433333333333
388,2017-02-07,7.906291666666667,,7.906291666666667
388,2017-02-08,22.606875000000002,,22.606875000000002
388,2017-02-09,4.979208333333333,,4.979208333333333
388,2017-02-10,3.811875,,3.811875
388,2017-02-11,9.908875,,9.908875
388,2017-02-12,6.340458333333333,,6.340458333333333
388,2017-02-13,2.7610833333333336,,2.7610833333333336
388,2017-02-14,48.39520833333333,,48.39520833333333
388,2017-02-15,32.199875,,32.199875
388,2017-02-16,26.968791666666664,,26.968791666666664
388,2017-02-17,60.04566666666667,,60.04566666666667
388,2017-02-18,71.92320833333333,,71.92320833333333
388,2017-02-19,78.16666666666667,,78.16666666666667
388,2017-02-20,81.70575000000001,,81.70575000000001
388,2017-02-21,33.36591666666667,,33.36591666666667
388,2017-02-22,49.12241666666667,,49.12241666666667
388,2017-02-23,49.303416666666664,,49.303416666666664
388,2017-02-24,45.86654166666667,,45.86654166666667
388,2017-02-25,8.628958333333333,,8.628958333333333
388,2017-02-26,47.047583333333336,,47.047583333333336
388,2017-02-27,79.377,,79.377
388,2017-02-28,39.141958333333335,,39.141958333333335
388,2017-03-01,34.31579166666666,,34.31579166666666
388,2017-03-02,76.21616666666667,,76.21616666666667
388,2017-03-03,56.115916666666664,,56.115916666666664
388,2017-03-04,7.225874999999999,,7.225874999999999
388,2017-03-05,41.759750000000004,,41.759750000000004
388,2017-03-06,47.98833333333334,,47.98833333333334
388,2017-03-07,15.360708333333333,,15.360708333333333
388,2017-03-08,77.85875,,77.85875
388,2017-03-09,57.942125000000004,,57.942125000000004
388,2017-03-10,50.46416666666667,,50.46416666666667
388,2017-03-11,16.030708333333333,,16.030708333333333
388,2017-03-12,66.37308333333333,,66.37308333333333
388,2017-03-13,41.49029166666667,,41.49029166666667
388,2017-03-14,0.45575000000000004,,0.45575000000000004
388,2017-03-15,0.35029166666666667,,0.35029166666666667
388,2017-03-16,2.8217499999999998,,2.8217499999999998
388,2017-03-17,5.104166666666667,,5.104166666666667
388,2017-03-18,1.1823333333333335,,1.1823333333333335
388,2017-03-19,6.39525,,6.39525
388,2017-03-20,6.7475,,6.7475
388,2017-03-21,36.294375,,36.294375
388,2017-03-22,79.19933333333334,,79.19933333333334
388,2017-03-23,90.81058333333334,,90.81058333333334
388,2017-03-24,21.05666666666667,,21.05666666666667
388,2017-03-25,13.639375000000001,,13.639375000000001
388,2017-03-26,54.98116666666667,,54.98116666666667
388,2017-03-27,31.985083333333336,,31.985083333333336
388,2017-03-28,17.600291666666667,,17.600291666666667
388,2017-03-29,99.46612499999999,,99.46612499999999
388,2017-03-30,38.07429166666667,,38.07429166666667
388,2017-03-31,15.780000000000001,,15.780000000000001
388,2017-04-01,16.21225,,16.21225
388,2017-04-02,85.90370833333333,,85.90370833333333
388,2017-04-03,63.71625,,63.71625
388,2017-04-04,41.27354166666667,,41.27354166666667
388,2017-04-05,51.58079166666667,,51.58079166666667
388,2017-04-06,9.702,,9.702
388,2017-04-07,0.5599999999999999,,0.5599999999999999
388,2017-04-08,58.763083333333334,,58.763083333333334
388,2017-04-09,100.123875,,100.123875
388,2017-04-10,75.68241666666667,,75.68241666666667
388,2017-04-11,36.89066666666667,,36.89066666666667
388,2017-04-12,26.885458333333332,,26.885458333333332
388,2017-04-13,92.711,,92.711
388,2017-04-14,111.90633333333334,,111.90633333333334
388,2017-04-15,54.629,,54.629
388,2017-04-16,85.47933333333333,,85.47933333333333
388,2017-04-17,110.19795833333335,,110.19795833333335
388,2017-04-18,113.52354166666667,,113.52354166666667
388,2017-04-19,19.994916666666665,,19.994916666666665
388,2017-04-20,26.393375000000002,,26.393375000000002
388,2017-04-21,64.89458333333333,,64.89458333333333
388,2017-04-22,47.273500000000006,,47.273500000000006
388,2017-04-23,114.71095833333334,,114.71095833333334
388,2017-04-24,114.09120833333333,,114.09120833333333
388,2017-04-25,49.81,,49.81
388,2017-04-26,91.77999999999999,,91.77999999999999
388,2017-04-27,96.10812499999999,,96.10812499999999
388,2017-04-28,90.14854166666667,,90.14854166666667
388,2017-04-29,29.032666666666668,,29.032666666666668
388,2017-04-30,59.851625000000006,,59.851625000000006
388,2017-05-01,16.618583333333333,,16.618583333333333
388,2017-05-02,55.550916666666666,,55.550916666666666
388,2017-05-03,94.5795,,94.5795
388,2017-05-04,38.035291666666666,,38.035291666666666
388,2017-05-05,19.115958333333335,,19.115958333333335
388,2017-05-06,24.21620833333333,,24.21620833333333
388,2017-05-07,38.333333333333336,,38.333333333333336
388,2017-05-08,50.496208333333335,,50.496208333333335
388,2017-05-09,97.76958333333333,,97.76958333333333
388,2017-05-10,108.66154166666666,,108.66154166666666
388,2017-05-11,78.58345833333333,,78.58345833333333
388,2017-05-12,81.60945833333334,,81.60945833333334
388,2017-05-13,29.639458333333334,,29.639458333333334
388,2017-05-14,66.67454166666667,,66.67454166666667
388,2017-05-15,107.67329166666667,,107.67329166666667
388,2017-05-16,68.93754166666666,,68.93754166666666
388,2017-05-17,96.62504166666668,,96.62504166666668
388,2017-05-18,79.69283333333333,,79.69283333333333
388,2017-05-19,45.539125000000006,,45.539125000000006
388,2017-05-20,122.31129166666666,,122.31129166666666
388,2017-05-21,51.70320833333333,,51.70320833333333
388,2017-05-22,80.29308333333334,,80.29308333333334
388,2017-05-23,99.60808333333334,,99.60808333333334
388,2017-05-24,100.54175,,100.54175
388,2017-05-25,35.005375,,35.005375
388,2017-05-26,29.94541666666667,,29.94541666666667
388,2017-05-27,36.94416666666667,,36.94416666666667
388,2017-05-28,97.76316666666666,,97.76316666666666
388,2017-05-29,85.52741666666667,,85.52741666666667
388,2017-05-30,58.181125,,58.181125
388,2017-05-31,93.57437499999999,,93.57437499999999
388,2017-06-01,93.3685,,93.3685
388,2017-06-02,105.70325000000001,,105.70325000000001
388,2017-06-03,118.69670833333333,,118.69670833333333
388,2017-06-04,36.79425,,36.79425
388,2017-06-05,40.28783333333333,,40.28783333333333
388,2017-06-06,59.32683333333333,,59.32683333333333
388,2017-06-07,120.19808333333333,,120.19808333333333
388,2017-06-08,112.53391666666666,,112.53391666666666
388,2017-06-09,115.78266666666667,,115.78266666666667
388,2017-06-10,102.92716666666666,,102.92716666666666
388,2017-06-11,118.33608333333332,,118.33608333333332
388,2017-06-12,113.77999999999999,,113.77999999999999
388,2017-06-13,63.014375,,63.014375
388,2017-06-14,122.07170833333333,,122.07170833333333
388,2017-06-15,56.95316666666667,,56.95316666666667
388,2017-06-16,85.74362500000001,,85.74362500000001
388,2017-06-17,110.457125,,110.457125
388,2017-06-18,77.84775,,77.84775
388,2017-06-19,53.6915,,53.6915
388,2017-06-20,84.976625,,84.976625
388,2017-06-21,85.59770833333333,,85.59770833333333
388,2017-06-22,89.57291666666667,,89.57291666666667
388,2017-06-23,49.40116666666666,,49.40116666666666
388,2017-06-24,92.36858333333333,,92.36858333333333
388,2017-06-25,87.56129166666666,,87.56129166666666
388,2017-06-26,84.662875,,84.662875
388,2017-06-27,80.14070833333334,,80.14070833333334
388,2017-06-28,101.61470833333334,,101.61470833333334
388,2017-06-29,40.53270833333333,,40.53270833333333
388,2017-06-30,56.01045833333333,,56.01045833333333
388,2017-07-01,50.66283333333333,,50.66283333333333
388,2017-07-02,105.32566666666666,,105.32566666666666
388,2017-07-03,101.11991666666667,,101.11991666666667
388,2017-07-04,108.53141666666666,,108.53141666666666
388,2017-07-05,107.23316666666666,,107.23316666666666
388,2017-07-06,88.66675,,88.66675
388,2017-07-07,86.19670833333333,,86.19670833333333
388,2017-07-08,65.40895833333333,,65.40895833333333
388,2017-07-09,101.35554166666667,,101.35554166666667
388,2017-07-10,78.655,,78.655
388,2017-07-11,93.83729166666666,,93.83729166666666
388,2017-07-12,62.29175,,62.29175
388,2017-07-13,26.782625,,26.782625
388,2017-07-14,84.46883333333334,,84.46883333333334
388,2017-07-15,51.89070833333333,,51.89070833333333
388,2017-07-16,100.79558333333334,,100.79558333333334
388,2017-07-17,93.106875,,93.106875
388,2017-07-18,111.851625,,111.851625
388,2017-07-19,90.00666666666666,,90.00666666666666
388,2017-07-20,68.85674999999999,,68.85674999999999
388,2017-07-21,101.90241666666667,,101.90241666666667
388,2017-07-22,45.98970833333333,,45.98970833333333
388,2017-07-23,64.86854166666667,,64.86854166666667
388,2017-07-24,57.043,,57.043
388,2017-07-25,25.774833333333333,,25.774833333333333
388,2017-07-26,85.04825,,85.04825
388,2017-07-27,43.07945833333333,,43.07945833333333
388,2017-07-28,92.476625,,92.476625
388,2017-07-29,116.56645833333333,,116.56645833333333
388,2017-07-30,106.34249999999999,,106.34249999999999
388,2017-07-31,102.69012500000001,,102.69012500000001
388,2017-08-01,92.54175,,92.54175
388,2017-08-02,102.54558333333334,,102.54558333333334
388,2017-08-03,88.01829166666666,,88.01829166666666
388,2017-08-04,62.731833333333334,,62.731833333333334
388,2017-08-05,59.63941666666667,,59.63941666666667
388,2017-08-06,87.01054166666667,,87.01054166666667
388,2017-08-07,47.65891666666667,,47.65891666666667
388,2017-08-08,90.53520833333333,,90.53520833333333
388,2017-08-09,100.039125,,100.039125
388,2017-08-10,93.04304166666667,,93.04304166666667
388,2017-08-11,42.96745833333333,,42.96745833333333
388,2017-08-12,75.9415,,75.9415
388,2017-08-13,87.38025,,87.38025
388,2017-08-14,86.70579166666666,,86.70579166666666
388,2017-08-15,66.23454166666666,,66.23454166666666
388,2017-08-16,87.21749999999999,,87.21749999999999
388,2017-08-17,81.04829166666667,,81.04829166666667
388,2017-08-18,88.73058333333334,,88.73058333333334
388,2017-08-19,79.03391666666667,,79.03391666666667
388,2017-08-20,94.75266666666666,,94.75266666666666
388,2017-08-21,82.16020833333333,,82.16020833333333
388,2017-08-22,53.56270833333334,,53.56270833333334
388,2017-08-23,78.18245833333333,,78.18245833333333
388,2017-08-24,52.9975,,52.9975
388,2017-08-25,91.10691666666666,,91.10691666666666
388,2017-08-26,86.47675,,86.47675
388,2017-08-27,102.896,,102.896
388,2017-08-28,78.00016666666666,,78.00016666666666
388,2017-08-29,89.73716666666667,,89.73716666666667
388,2017-08-30,78.58608333333333,,78.58608333333333
388,2017-08-31,68.42979166666667,,68.42979166666667
388,2017-09-01,85.34654166666667,,85.34654166666667
388,2017-09-02,99.02879166666666,,99.02879166666666
388,2017-09-03,40.01054166666667,,40.01054166666667
388,2017-09-04,89.87254166666666,,89.87254166666666
388,2017-09-05,32.97154166666667,,32.97154166666667
388,2017-09-06,44.117375,,44.117375
388,2017-09-07,78.34120833333334,,78.34120833333334
388,2017-09-08,54.38291666666667,,54.38291666666667
388,2017-09-09,76.28925,,76.28925
388,2017-09-10,90.52358333333332,,90.52358333333332
388,2017-09-11,95.24754166666666,,95.24754166666666
388,2017-09-12,95.073125,,95.073125
388,2017-09-13,74.26833333333333,,74.26833333333333
388,2017-09-14,45.520916666666665,,45.520916666666665
388,2017-09-15,80.42979166666667,,80.42979166666667
388,2017-09-16,76.112125,,76.112125
388,2017-09-17,72.71108333333333,,72.71108333333333
388,2017-09-18,69.88816666666666,,69.88816666666666
388,2017-09-19,81.60170833333333,,81.60170833333333
388,2017-09-20,77.40375,,77.40375
388,2017-09-21,65.99225,,65.99225
388,2017-09-22,81.396,,81.396
388,2017-09-23,83.58079166666667,,83.58079166666667
388,2017-09-24,80.41420833333333,,80.41420833333333
388,2017-09-25,78.67725,,78.67725
388,2017-09-26,70.20066666666666,,70.20066666666666
388,2017-09-27,74.03133333333334,,74.03133333333334
388,2017-09-28,35.69025,,35.69025
388,2017-09-29,45.859541666666665,,45.859541666666665
388,2017-09-30,53.83866666666666,,53.83866666666666
388,2017-10-01,88.575625,,88.575625
388,2017-10-02,87.83866666666667,,87.83866666666667
388,2017-10-03,84.784,,84.784
388,2017-10-04,62.034,,62.034
388,2017-10-05,84.90379166666666,,84.90379166666666
388,2017-10-06,27.349125,,27.349125
388,2017-10-07,31.539208333333335,,31.539208333333335
388,2017-10-08,34.81791666666667,,34.81791666666667
388,2017-10-09,13.7475,,13.7475
388,2017-10-10,63.26320833333333,,63.26320833333333
388,2017-10-11,14.221541666666667,,14.221541666666667
388,2017-10-12,30.65116666666667,,30.65116666666667
388,2017-10-13,27.05741666666667,,27.05741666666667
388,2017-10-14,52.33091666666667,,52.33091666666667
388,2017-10-15,45.66425,,45.66425
388,2017-10-16,46.299625,,46.299625
388,2017-10-17,76.625125,,76.625125
388,2017-10-18,72.19541666666667,,72.19541666666667
388,2017-10-19,69.807375,,69.807375
388,2017-10-20,73.250125,,73.250125
388,2017-10-21,52.557375,,52.557375
388,2017-10-22,48.726708333333335,,48.726708333333335
388,2017-10-23,39.169333333333334,,39.169333333333334
388,2017-10-24,51.784,,51.784
388,2017-10-25,40.73708333333334,,40.73708333333334
388,2017-10-26,47.06525,,47.06525
388,2017-10-27,50.57825,,50.57825
388,2017-10-28,20.84125,,20.84125
388,2017-10-29,7.390708333333333,,7.390708333333333
388,2017-10-30,27.75791666666667,,27.75791666666667
388,2017-10-31,12.414166666666667,,12.414166666666667
388,2017-11-01,11.528791666666665,,11.528791666666665
388,2017-11-02,21.27875,,21.27875
388,2017-11-03,13.705791666666668,,13.705791666666668
388,2017-11-04,27.458416666666665,,27.458416666666665
388,2017-11-05,7.145958333333333,,7.145958333333333
388,2017-11-06,18.507916666666667,,18.507916666666667
388,2017-11-07,22.797,,22.797
388,2017-11-08,63.255374999999994,,63.255374999999994
388,2017-11-09,44.1955,,44.1955
388,2017-11-10,12.682416666666667,,12.682416666666667
388,2017-11-11,54.12254166666667,,54.12254166666667
388,2017-11-12,30.273583333333335,,30.273583333333335
388,2017-11-13,18.39075,,18.39075
388,2017-11-14,5.958458333333333,,5.958458333333333
388,2017-11-15,38.61729166666667,,38.61729166666667
388,2017-11-16,15.320375,,15.320375
388,2017-11-17,58.86991666666666,,58.86991666666666
388,2017-11-18,3.513125,,3.513125
388,2017-11-19,11.007958333333333,,11.007958333333333
388,2017-11-20,7.333416666666667,,7.333416666666667
388,2017-11-21,48.367333333333335,,48.367333333333335
388,2017-11-22,7.000125,,7.000125
388,2017-11-23,13.640749999999999,,13.640749999999999
388,2017-11-24,51.50275,,51.50275
388,2017-11-25,6.29175,,6.29175
388,2017-11-26,4.32825,,4.32825
388,2017-11-27,22.46366666666667,,22.46366666666667
388,2017-11-28,48.047,,48.047
388,2017-11-29,15.651208333333335,,15.651208333333335
388,2017-11-30,22.13554166666667,,22.13554166666667
388,2017-12-01,20.825666666666667,,20.825666666666667